Temperature
-11 -11 -10 -10 -9 -9 -9 -9 -9 -8 -7 -7 -6 -4 -3 -2 -1 1 3 5 6 7 8 9 10 11 11 12 12 13 13 13 13 13 14 14 14 14
-11 -10 -10 -9 -9 -9 -9 -8 -8 -8 -8 -7 -6 -5 -4 -2 -1 0 2 4 5 6 7 8 9 10 11 11 12 13 13 13 13 13 13 13 14 14
-10 -10 -10 -9 -9 -9 -9 -8 -8 -8 -8 -7 -6 -5 -4 -3 -1 -0 1 4 5 6 7 8 9 10 11 11 12 12 13 13 12 13 13 13 13 13
-10 -10 -10 -9 -9 -9 -9 -9 -9 -8 -8 -8 -6 -5 -4 -2 -2 -0 1 3 5 6 7 8 9 9 10 11 11 12 12 12 13 13 13 13 13 13
-10 -10 -10 -10 -10 -9 -9 -9 -9 -9 -8 -7 -6 -5 -3 -2 -2 -0 1 3 4 6 7 8 8 9 10 10 11 11 12 12 13 12 13 13 13 13
-10 -10 -10 -10 -10 -10 -10 -10 -9 -9 -8 -7 -6 -5 -4 -2 -2 -1 1 2 4 5 7 8 8 9 9 10 11 11 12 12 12 12 13 12 12 12
-10 -10 -10 -11 -10 -11 -10 -10 -10 -10 -9 -8 -6 -5 -4 -3 -2 -1 0 2 4 5 6 7 8 8 9 10 10 11 11 12 12 13 13 12 12 12
-12 -11 -11 -11 -11 -11 -11 -11 -10 -10 -10 -9 -8 -6 -5 -4 -3 -2 -1 1 3 4 5 7 7 8 9 9 10 10 11 11 12 13 13 12 12 12
-12 -12 -12 -12 -11 -11 -11 -11 -10 -10 -10 -10 -9 -7 -6 -5 -4 -2 -1 -0 2 3 4 6 7 7 8 9 10 10 11 11 12 12 13 13 12 12
-13 -13 -13 -12 -11 -11 -11 -11 -11 -11 -10 -10 -9 -8 -7 -6 -4 -3 -2 -1 1 2 3 5 6 7 7 8 9 10 10 11 11 12 12 12 12 11
-13 -13 -13 -13 -12 -12 -12 -11 -11 -11 -10 -10 -9 -8 -7 -6 -5 -3 -2 -1 0 1 3 4 5 6 7 7 8 9 10 10 11 11 12 12 11 11
-14 -14 -13 -13 -13 -12 -13 -12 -12 -11 -10 -9 -8 -8 -7 -6 -5 -3 -2 -2 -1 1 2 3 4 5 6 7 7 8 9 9 10 10 11 11 11 10
-14 -14 -14 -13 -13 -13 -13 -13 -13 -11 -10 -9 -9 -8 -7 -6 -5 -4 -3 -2 -1 0 1 2 3 4 5 6 7 7 8 8 9 9 9 10 10 10
-14 -14 -14 -14 -14 -14 -14 -13 -12 -11 -10 -10 -9 -8 -7 -6 -5 -4 -3 -3 -1 -0 1 1 2 4 5 6 6 7 7 7 8 8 8 9 9 9
-14 -14 -14 -14 -14 -14 -14 -13 -12 -11 -11 -11 -10 -10 -9 -8 -6 -4 -3 -3 -2 -1 0 1 2 3 4 6 6 6 6 6 7 7 7 7 7 8
-14 -14 -14 -14 -14 -14 -14 -13 -13 -13 -12 -11 -11 -10 -9 -8 -6 -4 -3 -2 -2 -1 0 1 2 2 4 5 6 5 5 5 5 6 6 5 5 6
-14 -14 -14 -14 -14 -14 -14 -14 -13 -13 -12 -12 -11 -10 -9 -8 -7 -6 -4 -3 -2 -1 -0 1 1 2 3 3 4 5 5 5 4 4 5 4 3 3
-14 -14 -14 -14 -14 -14 -14 -14 -14 -14 -13 -12 -12 -11 -10 -10 -9 -8 -6 -4 -3 -2 -1 -0 1 2 2 2 2 3 4 4 3 3 4 4 2 1
-13 -13 -14 -14 -14 -14 -14 -14 -14 -14 -13 -13 -12 -12 -11 -11 -10 -9 -8 -6 -5 -3 -2 -1 0 1 1 0 -1 1 2 3 2 2 2 2 2 1
-13 -13 -13 -14 -14 -14 -14 -14 -14 -14 -14 -13 -13 -12 -12 -11 -11 -10 -9 -8 -7 -5 -3 -2 -1 0 1 0 -1 -1 -0 1 2 1 1 -0 -0 -1
-12 -12 -13 -13 -13 -13 -14 -14 -14 -14 -14 -13 -13 -13 -12 -12 -11 -11 -10 -10 -8 -7 -5 -4 -3 -1 -0 -0 -1 -2 -2 -2 -0 1 1 0 -1 -1
-11 -11 -12 -12 -13 -13 -13 -13 -13 -14 -14 -14 -13 -13 -13 -12 -12 -11 -11 -11 -10 -9 -9 -8 -6 -4 -3 -2 -3 -4 -3 -3 -3 -2 -0 1 1 -0
-11 -11 -11 -11 -12 -12 -12 -13 -13 -13 -13 -14 -13 -13 -13 -13 -12 -12 -12 -11 -11 -11 -10 -9 -8 -7 -6 -6 -6 -6 -5 -4 -3 -3 -2 -1 -0 -0
Wind_Speed
11 12 10 10 10 10 11 11 11 13 13 7 5 6 8 11 16 13 11 14 14 13 13 12 10 12 15 16 21 28 32 31 28 27 28 30 31 30
10 11 10 9 9 9 9 10 10 11 12 6 7 9 12 13 17 13 12 16 13 12 12 12 9 11 14 16 19 25 29 31 29 28 29 30 30 29
9 9 9 9 8 8 8 8 9 9 12 12 10 10 11 12 12 10 11 8 7 11 11 11 8 9 13 16 18 23 28 31 31 30 30 31 31 29
9 9 8 8 9 8 7 8 8 9 11 14 12 10 11 11 11 11 8 6 5 9 11 10 7 8 11 15 18 21 25 28 30 31 31 31 31 29
12 11 11 10 10 9 9 8 8 9 9 11 12 10 8 8 8 8 7 5 6 6 8 7 5 7 10 13 17 20 23 26 29 29 29 30 31 31
14 14 13 12 11 12 10 9 10 10 9 9 8 7 6 7 5 4 3 3 3 3 4 4 4 7 10 12 16 18 21 24 27 29 29 30 31 31
14 14 14 19 21 17 14 12 11 10 9 8 7 6 5 4 3 3 2 2 2 2 2 1 2 3 5 8 12 16 19 22 24 27 29 30 31 31
13 14 14 15 20 21 24 22 19 14 11 8 7 7 8 7 6 6 3 1 1 0 1 1 2 4 4 5 9 14 17 19 22 25 27 31 33 33
12 13 14 17 20 8 17 21 18 21 19 11 8 9 9 9 9 8 6 3 1 2 2 2 1 3 4 4 12 14 16 18 20 22 25 28 31 35
11 12 14 14 18 15 13 14 11 12 15 11 8 8 9 10 8 7 7 6 4 1 1 1 1 1 3 4 12 15 16 17 19 21 24 27 29 33
11 14 16 13 24 25 16 15 14 12 17 19 17 15 16 15 12 6 5 3 1 1 1 0 1 0 2 3 7 14 16 17 19 21 24 27 30 31
10 13 20 22 25 26 16 15 16 14 14 14 14 14 11 12 15 8 5 3 2 0 1 0 1 0 2 2 3 7 10 14 19 23 28 34 36 26
11 11 14 26 25 25 21 16 19 17 13 12 10 10 9 9 9 8 6 3 3 2 2 1 1 1 1 3 3 5 7 8 11 18 30 37 38 31
10 10 14 25 24 24 20 23 25 20 12 11 11 11 12 11 11 10 8 6 5 6 6 4 1 1 1 4 4 6 9 10 12 14 14 26 31 35
7 17 20 23 21 17 23 25 20 14 13 12 12 12 11 11 10 9 8 7 5 4 4 3 3 2 2 4 6 8 9 10 12 15 15 15 15 18
6 12 18 20 17 19 18 16 13 13 13 12 12 11 11 11 10 10 8 8 4 4 6 4 1 1 1 5 13 16 11 8 11 15 17 15 14 17
6 6 7 9 11 11 12 12 12 13 13 13 12 13 12 13 11 11 9 8 6 5 5 5 8 12 13 7 11 13 15 17 15 16 18 17 13 13
8 5 6 7 9 10 10 11 11 12 12 13 12 12 12 12 12 10 9 9 8 8 6 3 4 8 8 11 15 12 16 17 16 15 16 20 16 12
5 4 5 5 6 7 7 8 9 10 10 10 11 12 12 12 12 11 11 10 9 9 8 6 3 4 11 7 10 14 13 18 19 17 14 16 18 14
3 4 4 5 5 5 6 6 7 8 8 9 10 11 11 12 11 12 12 12 10 10 10 10 9 6 8 8 6 8 13 11 18 20 18 16 15 21
6 5 4 4 4 4 4 5 5 6 7 7 9 9 10 10 11 12 11 16 13 11 11 10 9 10 7 9 12 11 13 18 15 16 21 19 15 11
8 7 5 4 4 3 3 4 5 5 6 7 7 8 9 9 10 12 12 11 11 10 10 9 10 10 9 14 17 17 18 18 22 24 19 11 8 9
10 8 6 5 4 3 3 3 3 4 4 5 6 6 7 8 8 9 10 10 10 11 10 11 11 13 13 13 15 16 19 17 15 16 18 26 30 31
Wind_Direction
280 279 276 275 273 271 271 273 283 296 300 287 281 297 314 308 305 307 308 313 319 318 317 312 285 239 217 208 198 192 193 193 194 192 190 190 190 188
283 282 283 284 282 278 276 276 275 279 286 282 281 286 291 293 296 298 299 303 306 307 310 311 289 239 214 203 194 188 188 187 190 190 191 190 188 184
300 301 302 303 305 300 292 288 285 283 285 289 285 284 280 282 286 285 283 281 286 298 306 311 293 240 213 200 191 185 184 185 187 191 194 191 186 180
336 334 331 337 331 322 316 309 302 295 288 290 289 285 277 276 276 275 276 274 271 292 302 310 293 240 211 198 189 184 183 184 187 191 193 189 183 178
2 356 348 347 352 342 332 329 318 311 299 289 286 282 276 273 271 269 264 259 265 274 298 307 282 232 208 198 190 185 183 184 186 188 189 186 180 176
7 3 353 353 357 349 346 344 331 323 317 307 293 286 283 276 264 259 265 242 249 268 303 305 261 219 201 195 191 186 184 184 186 186 184 181 176 173
1 357 352 356 360 2 356 357 347 339 338 335 329 320 317 327 323 305 263 259 250 242 301 289 214 200 191 193 190 183 181 183 183 183 179 174 171 168
355 350 347 347 355 4 360 1 359 352 354 352 344 343 343 345 339 331 311 259 248 44 10 287 184 189 179 179 182 179 178 179 180 180 178 173 169 165
350 348 349 348 351 358 357 357 356 357 357 356 345 343 338 340 337 333 333 329 305 345 14 343 188 184 168 170 175 180 179 177 176 176 176 173 169 164
345 344 342 340 344 11 359 349 351 353 351 350 346 341 340 335 335 320 305 302 287 272 74 338 311 160 153 165 179 180 179 174 171 170 169 168 165 161
347 351 348 347 354 9 5 352 352 355 354 355 360 1 1 356 4 353 335 301 273 188 122 330 328 59 128 149 173 178 176 172 167 164 160 157 151 146
351 350 350 2 3 7 8 357 357 356 348 346 351 355 353 355 8 7 343 324 319 317 94 92 309 276 125 101 137 159 165 164 159 153 147 141 134 131
355 350 351 4 7 7 10 6 2 1 348 346 348 352 354 355 353 348 335 309 305 313 2 19 312 303 167 125 96 121 133 138 138 137 137 135 133 132
354 348 357 7 9 8 10 9 7 5 357 357 359 1 359 355 347 336 325 306 272 273 298 304 276 262 197 131 117 107 105 109 116 116 118 119 121 126
0 0 5 8 9 7 8 11 8 4 3 1 360 357 351 344 342 342 340 333 312 287 294 267 246 275 254 145 127 124 109 97 106 112 111 112 117 122
5 0 5 7 11 9 9 8 6 5 6 0 355 351 352 356 2 2 358 355 351 341 343 354 65 97 104 137 134 129 120 114 114 110 106 99 94 102
12 3 360 1 5 6 6 7 6 5 5 1 0 360 2 5 7 6 8 11 17 358 350 19 66 76 61 63 129 122 119 116 117 117 111 102 91 96
12 357 355 359 1 2 3 3 4 6 3 2 3 3 4 6 8 10 15 19 18 7 359 359 105 104 80 44 31 119 121 120 118 115 117 115 107 99
8 339 337 341 345 351 354 356 357 356 357 1 4 4 4 7 12 15 18 19 17 12 6 1 11 125 124 98 21 31 119 126 121 114 110 115 117 117
328 315 315 321 329 338 346 349 350 354 360 2 4 5 5 8 14 17 19 23 22 20 25 28 28 53 112 115 97 46 55 114 127 122 116 108 105 109
325 311 301 302 309 323 333 342 347 353 358 360 4 4 5 9 14 16 19 25 31 31 35 32 31 53 81 98 97 83 68 71 102 123 127 123 117 112
330 316 301 289 288 299 316 333 346 354 359 2 1 2 3 10 13 14 19 23 29 34 40 42 42 58 79 105 109 106 99 92 86 84 79 94 128 134
336 326 308 289 273 265 272 302 328 344 356 360 0 1 4 10 11 16 19 25 31 37 47 58 63 70 78 91 102 106 104 101 95 85 77 85 96 104
Height
1410 1409 1407 1404 1402 1400 1398 1396 1394 1387 1382 1380 1379 1377 1376 1376 1377 1377 1380 1384 1390 1396 1401 1407 1414 1420 1426 1432 1439 1445 1452 1460 1469 1478 1486 1494 1502 1509
1407 1405 1403 1401 1399 1396 1393 1391 1389 1386 1380 1375 1374 1372 1371 1371 1372 1373 1374 1379 1385 1391 1396 1402 1408 1414 1421 1427 1433 1439 1447 1454 1462 1472 1480 1489 1496 1504
1406 1404 1402 1399 1396 1393 1390 1387 1384 1381 1376 1370 1369 1367 1366 1366 1367 1368 1370 1373 1380 1386 1392 1398 1403 1409 1415 1422 1428 1435 1442 1449 1458 1467 1475 1484 1492 1499
1407 1404 1402 1399 1394 1390 1387 1383 1379 1376 1373 1366 1363 1362 1361 1362 1362 1364 1366 1369 1375 1381 1387 1393 1397 1404 1410 1417 1423 1430 1437 1444 1453 1461 1470 1478 1486 1494
1409 1406 1403 1399 1394 1389 1384 1380 1376 1371 1368 1363 1359 1358 1357 1358 1359 1360 1362 1366 1370 1377 1383 1388 1393 1399 1406 1412 1418 1425 1432 1439 1447 1454 1464 1473 1482 1489
1412 1408 1403 1399 1394 1388 1383 1378 1373 1368 1363 1359 1356 1354 1354 1355 1356 1357 1359 1362 1367 1372 1377 1383 1389 1395 1401 1407 1413 1419 1426 1434 1442 1450 1458 1466 1475 1484
1413 1408 1404 1400 1395 1389 1383 1377 1371 1366 1361 1356 1354 1352 1352 1353 1354 1355 1356 1359 1363 1368 1373 1379 1386 1391 1396 1402 1408 1414 1421 1428 1436 1444 1452 1461 1469 1477
1413 1408 1403 1398 1394 1387 1382 1375 1370 1365 1361 1356 1353 1351 1350 1351 1352 1352 1354 1357 1361 1365 1369 1375 1381 1386 1391 1397 1403 1409 1416 1424 1431 1439 1447 1455 1463 1471
1413 1408 1404 1399 1393 1386 1380 1374 1368 1363 1360 1357 1353 1351 1350 1350 1350 1351 1352 1354 1358 1362 1367 1370 1377 1382 1387 1393 1399 1406 1412 1419 1427 1434 1442 1449 1457 1465
1414 1409 1405 1399 1394 1387 1380 1373 1368 1363 1358 1355 1353 1351 1349 1349 1349 1349 1350 1353 1356 1359 1363 1368 1372 1377 1384 1390 1396 1402 1409 1415 1422 1429 1437 1445 1453 1461
1416 1410 1406 1401 1395 1388 1380 1374 1369 1363 1358 1354 1351 1349 1348 1347 1347 1348 1350 1352 1354 1358 1362 1366 1369 1375 1381 1386 1392 1399 1405 1411 1418 1426 1433 1441 1449 1458
1417 1411 1406 1402 1396 1390 1382 1376 1370 1364 1359 1354 1351 1348 1346 1345 1345 1346 1348 1350 1353 1356 1359 1364 1368 1373 1378 1383 1389 1395 1401 1408 1415 1422 1429 1437 1445 1454
1418 1413 1408 1403 1397 1391 1385 1379 1374 1367 1360 1355 1351 1347 1345 1344 1344 1345 1346 1348 1352 1355 1359 1363 1367 1370 1373 1378 1386 1393 1399 1405 1412 1419 1427 1434 1441 1449
1421 1416 1411 1405 1398 1392 1387 1382 1375 1369 1363 1357 1352 1347 1345 1343 1343 1344 1346 1348 1350 1354 1358 1362 1365 1368 1371 1374 1381 1390 1397 1403 1409 1416 1424 1432 1439 1447
1422 1418 1413 1407 1400 1394 1389 1383 1377 1371 1366 1360 1355 1350 1347 1345 1343 1344 1345 1347 1350 1353 1356 1360 1364 1367 1370 1372 1377 1385 1392 1402 1408 1414 1422 1430 1436 1443
1423 1418 1414 1408 1403 1398 1392 1386 1380 1376 1371 1366 1361 1356 1351 1347 1344 1344 1345 1347 1350 1353 1355 1359 1363 1366 1368 1371 1375 1383 1390 1398 1408 1414 1421 1429 1436 1444
1423 1419 1414 1409 1404 1399 1395 1390 1385 1380 1375 1370 1365 1360 1355 1350 1347 1346 1346 1348 1350 1352 1355 1358 1362 1366 1368 1371 1374 1381 1388 1397 1407 1414 1421 1429 1439 1446
1423 1419 1415 1411 1407 1403 1399 1395 1390 1385 1380 1375 1370 1365 1360 1355 1352 1350 1349 1349 1350 1352 1355 1358 1361 1365 1369 1372 1376 1380 1386 1395 1406 1415 1423 1430 1441 1451
1423 1420 1417 1414 1411 1407 1404 1400 1395 1391 1387 1382 1376 1371 1367 1362 1358 1355 1353 1352 1352 1353 1355 1358 1361 1364 1367 1373 1380 1385 1388 1394 1404 1415 1425 1432 1440 1451
1424 1421 1418 1415 1413 1410 1407 1404 1400 1396 1392 1387 1382 1378 1373 1369 1364 1360 1358 1357 1356 1356 1356 1359 1361 1364 1367 1372 1380 1388 1395 1398 1403 1412 1423 1433 1441 1451
1426 1422 1419 1416 1414 1412 1410 1407 1404 1400 1396 1392 1388 1384 1380 1376 1372 1368 1365 1363 1361 1360 1360 1361 1362 1365 1369 1374 1380 1390 1398 1404 1409 1413 1422 1432 1440 1450
1428 1424 1420 1417 1415 1413 1411 1409 1407 1404 1401 1397 1394 1390 1387 1383 1380 1376 1373 1370 1367 1366 1366 1366 1367 1370 1373 1375 1381 1389 1398 1407 1413 1419 1427 1433 1438 1447
1429 1425 1421 1418 1415 1413 1412 1410 1409 1407 1405 1402 1399 1396 1393 1390 1387 1384 1381 1378 1376 1374 1373 1373 1374 1375 1377 1381 1385 1392 1399 1407 1415 1422 1431 1439 1445 1452